Weather History for KPNS - April, 2014

Change the Weather History Date:

Saturday, April 5, 2014

  Actual Average Record
Temperature  
Mean Temperature 68 °F 64 °F  
Max Temperature 73 °F 73 °F 84 °F (1988)
Min Temperature 62 °F 55 °F 34 °F (1891)
Degree Days  
Heating Degree Days 0 3  
Month to date heating degree days 5 15  
Since 1 July heating degree days 1547 1499  
Cooling Degree Days 3 2  
Month to date cooling degree days 22 10  
Year to date cooling degree days 43 57  
Growing Degree Days 17 (Base 50)    
Moisture  
Dew Point 60 °F    
Average Humidity 77    
Maximum Humidity 93    
Minimum Humidity 61    
Precipitation  
Precipitation 0.72 in 0.15 in 2.52 in (2008)
Month to date precipitation 0.72 0.79  
Year to date precipitation 21.83 16.29  
Snow  
Snow 0.00 in 0.00 in - ()
Month to date snowfall 0.0 0.0  
Since 1 July snowfall 1.0 0.0  
Snow Depth 0.00 in    
Sea Level Pressure  
Sea Level Pressure 30.01 in    
Wind  
Wind Speed 7 mph (NNE)    
Max Wind Speed 16 mph    
Max Gust Speed 27 mph    
Visibility 7 miles    
Events Rain , Thunderstorm    
T = Trace of Precipitation, MM = Missing Value Source: NWS Daily Summary

Daily Weather History Graph

Daily Weather History Graph

Search for Another Location

Airport or City:

Trip Planner

Search our weather history database for the weather conditions in past years. The results will help you decide how hot, cold, wet, or windy it might be!

Date:

Astronomy

Apr. 05, 2014 Rise Set
Actual Time 6:33 AM CDT 7:10 PM CDT
Civil Twilight 6:08 AM CDT 7:34 PM CDT
Nautical Twilight 5:40 AM CDT 8:03 PM CDT
Astronomical Twilight 5:11 AM CDT 8:32 PM CDT
Moon 10:54 AM CDT (4/5) 12:05 AM CDT (4/5)
Length of Visible Light 13h 25m
Length of Day
12h 37m
Waxing Crescent, 34% of the Moon is Illuminated
Apr 5
Waxing Crescent
Apr 7
First Quarter
Apr 15
Full
Apr 22
Last Quarter
Apr 29
New

Hourly Weather History & Observations

Time (CDT) Temp. Dew Point Humidity Pressure Visibility Wind Dir Wind Speed Gust Speed Precip Events Conditions
12:11 AM 66.9 °F 62.1 °F 84% 29.99 in 10.0 mi North 5.8 mph - N/A   Mostly Cloudy
12:53 AM 68.0 °F 62.1 °F 81% 30.01 in 10.0 mi NNW 5.8 mph - N/A   Overcast
1:12 AM 68.0 °F 61.0 °F 78% 30.00 in 10.0 mi North 4.6 mph - N/A   Scattered Clouds
1:53 AM 68.0 °F 61.0 °F 78% 29.98 in 10.0 mi NE 4.6 mph - 0.00 in Rain Light Rain
2:53 AM 66.0 °F 62.1 °F 87% 29.98 in 10.0 mi North 3.5 mph - 0.00 in   Mostly Cloudy
3:53 AM 66.9 °F 63.0 °F 87% 29.99 in 10.0 mi North 3.5 mph - N/A   Overcast
4:53 AM 66.9 °F 61.0 °F 81% 29.96 in 10.0 mi North 10.4 mph - N/A   Overcast
5:53 AM 66.0 °F 60.1 °F 81% 29.99 in 10.0 mi North 10.4 mph - N/A   Overcast
6:53 AM 64.9 °F 59.0 °F 81% 30.01 in 10.0 mi North 12.7 mph - N/A   Overcast
7:53 AM 64.9 °F 57.9 °F 78% 30.03 in 10.0 mi North 10.4 mph - N/A   Overcast
8:53 AM 64.9 °F 55.0 °F 70% 30.05 in 10.0 mi North 8.1 mph - N/A   Overcast
9:53 AM 64.9 °F 55.0 °F 70% 30.06 in 7.0 mi North 12.7 mph - 0.00 in Rain Rain
10:02 AM 63.0 °F 55.9 °F 78% 30.05 in 3.0 mi North 6.9 mph - 0.03 in Rain Heavy Rain
10:53 AM 66.0 °F 55.9 °F 70% 30.06 in 10.0 mi North 5.8 mph - 0.04 in   Overcast
11:32 AM 66.0 °F 57.0 °F 73% 30.04 in 10.0 mi North 5.8 mph - 0.01 in Rain Light Rain
11:53 AM 68.0 °F 57.0 °F 68% 30.05 in 10.0 mi NNE 8.1 mph - 0.01 in   Overcast
12:16 PM 68.0 °F 57.0 °F 68% 30.03 in 10.0 mi North 6.9 mph - N/A   Overcast
12:53 PM 69.1 °F 57.0 °F 65% 30.03 in 10.0 mi North 5.8 mph - N/A   Overcast
1:53 PM 72.0 °F 57.9 °F 61% 30.02 in 10.0 mi North 4.6 mph - 0.00 in   Overcast
2:28 PM 71.1 °F 57.0 °F 61% 29.99 in 10.0 mi North 8.1 mph - N/A Thunderstorm Overcast
2:41 PM 71.1 °F 57.0 °F 61% 30.00 in 10.0 mi North 8.1 mph - N/A Thunderstorm Thunderstorm
2:49 PM 69.8 °F 57.2 °F 64% 29.99 in 1.2 mi SE 15.0 mph 27.6 mph N/A Thunderstorm Unknown
2:51 PM 68.0 °F 57.2 °F 68% 29.99 in 0.8 mi NE 8.1 mph 27.6 mph 0.03 in Rain Heavy Rain
2:53 PM 66.0 °F 59.0 °F 78% 30.00 in 0.5 mi North 9.2 mph 27.6 mph 0.17 in Rain Heavy Rain
3:01 PM 66.0 °F 61.0 °F 84% 30.00 in 1.0 mi Variable 3.5 mph - 0.17 in Rain , Thunderstorm Light Rain
3:03 PM 66.0 °F 61.0 °F 84% 30.00 in 2.0 mi Variable 3.5 mph - 0.17 in Rain , Thunderstorm Light Rain
3:10 PM 64.9 °F 61.0 °F 87% 29.99 in 6.0 mi SE 4.6 mph - 0.18 in Rain , Thunderstorm Light Rain
3:38 PM 64.9 °F 61.0 °F 87% 30.00 in 7.0 mi South 3.5 mph - 0.19 in Rain , Thunderstorm Light Thunderstorms and Rain
3:53 PM 66.0 °F 62.1 °F 87% 30.00 in 2.0 mi SSE 3.5 mph - 0.21 in Rain , Thunderstorm Heavy Thunderstorms and Rain
3:56 PM 66.0 °F 62.1 °F 87% 29.99 in 1.8 mi Calm Calm - 0.01 in Rain , Thunderstorm Heavy Rain
4:04 PM 64.9 °F 62.1 °F 90% 30.00 in 2.5 mi Calm Calm - 0.04 in Rain , Thunderstorm Rain
4:11 PM 64.9 °F 62.1 °F 90% 29.99 in 3.0 mi Calm Calm - 0.05 in Rain Rain
4:32 PM 64.9 °F 61.0 °F 87% 30.00 in 2.5 mi NNW 5.8 mph - 0.07 in Rain Rain
4:44 PM 64.9 °F 61.0 °F 87% 30.00 in 7.0 mi North 5.8 mph - 0.08 in Rain Light Rain
4:53 PM 64.0 °F 61.0 °F 90% 30.01 in 4.0 mi NNW 5.8 mph - 0.08 in Rain Light Rain
5:06 PM 64.0 °F 60.1 °F 87% 30.00 in 2.0 mi North 5.8 mph - 0.01 in Rain Rain
5:53 PM 63.0 °F 60.1 °F 90% 30.01 in 4.0 mi North 5.8 mph - 0.06 in Rain Light Rain
6:53 PM 63.0 °F 60.1 °F 90% 30.01 in 7.0 mi North 4.6 mph - 0.00 in   Overcast
7:53 PM 62.1 °F 60.1 °F 93% 30.02 in 7.0 mi NNW 6.9 mph - 0.04 in Rain Light Rain
8:13 PM 62.1 °F 59.0 °F 90% 30.01 in 7.0 mi North 8.1 mph - 0.01 in Rain Light Rain
8:53 PM 62.1 °F 60.1 °F 93% 30.02 in 7.0 mi NNE 6.9 mph - 0.07 in Rain Light Rain
9:14 PM 63.0 °F 60.1 °F 90% 30.03 in 6.0 mi North 6.9 mph - 0.01 in Rain Light Rain
9:20 PM 62.1 °F 60.1 °F 93% 30.03 in 6.0 mi North 6.9 mph - 0.01 in Rain Light Rain
9:46 PM 62.1 °F 60.1 °F 93% 30.00 in 7.0 mi NNE 9.2 mph - 0.03 in Rain Light Rain
9:53 PM 63.0 °F 60.1 °F 90% 30.01 in 8.0 mi NNE 6.9 mph - 0.03 in Rain Light Rain
10:53 PM 63.0 °F 60.1 °F 90% 29.99 in 10.0 mi NE 5.8 mph - 0.01 in   Mostly Cloudy
11:07 PM 62.1 °F 59.0 °F 90% 29.98 in 10.0 mi ENE 5.8 mph - 0.00 in Rain Light Rain
11:53 PM 63.0 °F 60.1 °F 90% 29.99 in 10.0 mi ENE 5.8 mph - 0.00 in   Mostly Cloudy